VE7OTD Weather Reports


Display with metric or nautical units.
time (UTC)temp
F
wind
direction
speed
MPH
gust
MPH
rain 1hr
in
rain 24hr
in
rain mn
in
humidity
%
barometer
mb
20260506061712 56 135 2.0 4.0 0.00 0.00 0.00 91 1013.5
20260506044548 59 158 2.0 2.0 0.00 0.00 0.00 84 1012.9
20260506041532 0 135 2.0 4.0 0.00 0.00 0.00 1012.6
20260506034517 61 180 2.0 4.0 0.00 0.00 0.00 75 1012.3
20260506031502 63 135 2.0 3.0 0.00 0.00 0.00 69 1012.2
20260506024448 65 22 1.0 4.0 0.00 0.00 0.00 62 1012.0
20260506021432 0 202 2.0 2.0 0.00 0.00 0.00 1012.0
20260506014417 0 202 2.0 2.0 0.00 0.00 0.00 1011.9
20260506011403 0 202 2.0 2.0 0.00 0.00 0.00 1012.0
20260506004347 69 202 2.0 4.0 0.00 0.00 0.00 56 1012.1
20260506001331 70 158 2.0 4.0 0.00 0.00 0.00 55 1012.2
20260505234303 70 112 4.0 5.0 0.00 0.00 0.00 55 1012.5
20260505231301 71 338 2.0 5.0 0.00 0.00 0.00 55 1012.7
20260505224246 71 158 3.0 5.0 0.00 0.00 0.00 54 1012.9
20260505221231 72 158 4.0 7.0 0.00 0.00 0.00 53 1013.1
20260505214216 72 180 3.0 5.0 0.00 0.00 0.00 54 1013.3
20260505211201 72 158 3.0 7.0 0.00 0.00 0.00 53 1013.5
20260505204145 73 158 3.0 6.0 0.00 0.00 0.00 55 1013.7
20260505201130 71 112 3.0 7.0 0.00 0.00 0.00 55 1013.8
20260505194115 72 180 4.0 6.0 0.00 0.00 0.00 56 1013.9
20260505191100 72 112 4.0 6.0 0.00 0.00 0.00 53 1013.7
20260505184045 70 90 3.0 5.0 0.00 0.00 0.00 59 1013.7
20260505181030 69 112 3.0 5.0 0.00 0.00 0.00 63 1013.7
20260505174016 68 112 4.0 5.0 0.00 0.00 0.00 64 1013.5
20260505170942 66 225 4.0 5.0 0.00 0.00 0.00 68 1013.6
20260505163932 67 112 3.0 4.0 0.00 0.00 0.00 69 1013.5
20260505160930 66 180 2.0 4.0 0.00 0.00 0.00 70 1013.4
20260505150915 65 180 2.0 2.0 0.00 0.00 0.00 67 1012.9
20260505123801 54 292 0.0 2.0 0.00 0.00 0.00 83 1011.5
20260505120730 56 22 1.0 2.0 0.00 0.00 0.00 80 1011.1
20260505113715 56 22 0.0 2.0 0.00 0.00 0.00 78 1010.9
20260505110701 57 338 1.0 2.0 0.00 0.00 0.00 76 1010.7
20260505100631 58 292 0.0 0.0 0.00 0.00 0.00 76 1010.2
20260505093615 56 338 0.0 0.0 0.00 0.00 0.00 83 1010.0
20260505090600 56 338 0.0 0.0 0.00 0.00 0.00 86 1009.7
20260505083544 57 338 0.0 0.0 0.00 0.00 0.00 85 1009.5
20260505080545 58 292 0.0 0.0 0.00 0.00 0.00 83 1009.5
20260505073545 62 22 0.0 2.0 0.00 0.00 0.00 73 1009.1
20260505070528 62 0 1.0 2.0 0.00 0.00 0.00 70 1008.8